EN

Hourly Weather Bolshie Sontaki

Today, 25 October, Sunday

Time Temperature Precipitation Wind Pressure Humidity
00:00 +9°C° 0 mm 3 mps 748 mmHg 93%
01:00 +9°C° 0 mm 3 mps 748 mmHg 94%
02:00 +9°C° 0 mm 3 mps 749 mmHg 96%
03:00 +8°C° 0 mm 3 mps 749 mmHg 96%
04:00 +8°C° 0 mm 2 mps 749 mmHg 96%
05:00 +8°C° 0 mm 2 mps 749 mmHg 96%
06:00 +8°C° 0 mm 2 mps 749 mmHg 96%
07:00 +8°C° 0 mm 2 mps 750 mmHg 96%
08:00 +8°C° 0 mm 2 mps 750 mmHg 96%
09:00 +9°C° 0 mm 2 mps 750 mmHg 91%
10:00 +10°C° 0 mm 2 mps 750 mmHg 86%
11:00 +13°C° 0 mm 2 mps 751 mmHg 80%
12:00 +13°C° 0 mm 2 mps 751 mmHg 77%
13:00 +14°C° 0 mm 2 mps 751 mmHg 73%
14:00 +15°C° 0 mm 2 mps 751 mmHg 70%
15:00 +14°C° 0 mm 2 mps 751 mmHg 76%
16:00 +13°C° 0 mm 2 mps 750 mmHg 81%
17:00 +12°C° 0 mm 1 mps 750 mmHg 87%
18:00 +10°C° 0 mm 2 mps 750 mmHg 89%
19:00 +10°C° 0 mm 2 mps 751 mmHg 90%
20:00 +9°C° 0 mm 2 mps 751 mmHg 92%
21:00 +9°C° 0 mm 2 mps 751 mmHg 93%
22:00 +9°C° 0 mm 2 mps 751 mmHg 93%
23:00 +9°C° 0 mm 2 mps 751 mmHg 94%

Tomorrow, 26 October, Monday

Time Temperature Precipitation Wind Pressure Humidity
00:00 +9°C° 0 mm 2 mps 751 mmHg 94%
01:00 +8°C° 0 mm 3 mps 751 mmHg 95%
02:00 +8°C° 0 mm 3 mps 751 mmHg 95%
03:00 +8°C° 0 mm 3 mps 751 mmHg 94%
04:00 +8°C° 0 mm 3 mps 751 mmHg 93%
05:00 +7°C° 0 mm 4 mps 750 mmHg 92%
06:00 +8°C° 0 mm 4 mps 750 mmHg 90%
07:00 +8°C° 0 mm 4 mps 750 mmHg 87%
08:00 +8°C° 0 mm 5 mps 750 mmHg 84%
09:00 +9°C° 0 mm 5 mps 750 mmHg 82%
10:00 +10°C° 0 mm 6 mps 749 mmHg 79%
11:00 +11°C° 0 mm 6 mps 749 mmHg 76%
12:00 +11°C° 0 mm 6 mps 749 mmHg 76%
13:00 +11°C° 0 mm 6 mps 749 mmHg 76%
14:00 +13°C° 0 mm 5 mps 749 mmHg 76%
15:00 +12°C° 0 mm 5 mps 749 mmHg 78%
16:00 +12°C° 0 mm 5 mps 748 mmHg 80%
17:00 +12°C° 0 mm 5 mps 748 mmHg 81%
18:00 +12°C° 0 mm 5 mps 748 mmHg 83%
19:00 +10°C° 0 mm 5 mps 748 mmHg 84%
20:00 +10°C° 0 mm 5 mps 749 mmHg 86%
21:00 +10°C° 0 mm 5 mps 749 mmHg 87%
22:00 +10°C° 0 mm 5 mps 749 mmHg 88%
23:00 +9°C° 0 mm 5 mps 748 mmHg 90%

Day after tomorrow, 27 October, Tuesday

Time Temperature Precipitation Wind Pressure Humidity
00:00 +9°C° 0 mm 5 mps 748 mmHg 91%
01:00 +9°C° 0 mm 5 mps 748 mmHg 92%
02:00 +9°C° 0 mm 5 mps 748 mmHg 93%
03:00 +9°C° 0 mm 5 mps 748 mmHg 93%
04:00 +9°C° 0 mm 5 mps 748 mmHg 93%
05:00 +8°C° 0 mm 5 mps 748 mmHg 94%
06:00 +9°C° 0 mm 5 mps 748 mmHg 94%
07:00 +9°C° 0 mm 5 mps 748 mmHg 94%
08:00 +9°C° 0 mm 5 mps 748 mmHg 94%
09:00 +10°C° 0 mm 5 mps 749 mmHg 91%
10:00 +12°C° 0 mm 5 mps 749 mmHg 88%
11:00 +12°C° 0 mm 5 mps 749 mmHg 84%
12:00 +13°C° 0 mm 5 mps 749 mmHg 81%
13:00 +14°C° 0 mm 5 mps 749 mmHg 77%
14:00 +15°C° 0 mm 5 mps 749 mmHg 74%
15:00 +15°C° 0 mm 4 mps 749 mmHg 78%
16:00 +14°C° 0 mm 4 mps 749 mmHg 83%
17:00 +13°C° 0 mm 4 mps 749 mmHg 87%
18:00 +12°C° 0 mm 4 mps 749 mmHg 88%
19:00 +12°C° 0 mm 4 mps 749 mmHg 89%
20:00 +12°C° 0 mm 5 mps 749 mmHg 90%
21:00 +12°C° 0 mm 5 mps 749 mmHg 91%
22:00 +10°C° 0 mm 5 mps 749 mmHg 91%
23:00 +11°C° 0 mm 4 mps 749 mmHg 91%

28 October, Wednesday

Time Temperature Precipitation Wind Pressure Humidity
00:00 +11°C° 0 mm 4 mps 749 mmHg 92%
01:00 +11°C° 0 mm 4 mps 749 mmHg 93%
02:00 +10°C° 0 mm 4 mps 749 mmHg 94%
03:00 +10°C° 0 mm 4 mps 749 mmHg 94%
04:00 +10°C° 0 mm 4 mps 749 mmHg 95%
05:00 +10°C° 0 mm 4 mps 749 mmHg 95%
06:00 +10°C° 0 mm 4 mps 749 mmHg 95%
07:00 +10°C° 0 mm 4 mps 749 mmHg 96%
08:00 +10°C° 0 mm 3 mps 750 mmHg 96%
09:00 +11°C° 0 mm 3 mps 750 mmHg 94%
10:00 +11°C° 0 mm 3 mps 750 mmHg 91%
11:00 +12°C° 0 mm 3 mps 750 mmHg 89%
12:00 +13°C° 0 mm 3 mps 750 mmHg 87%
13:00 +13°C° 0 mm 3 mps 750 mmHg 86%
14:00 +14°C° 0 mm 3 mps 750 mmHg 84%
15:00 +13°C° 0 mm 3 mps 750 mmHg 85%
16:00 +13°C° 0 mm 3 mps 750 mmHg 87%
17:00 +14°C° 0 mm 2 mps 750 mmHg 88%
18:00 +14°C° 0 mm 2 mps 750 mmHg 90%
19:00 +13°C° 0 mm 2 mps 750 mmHg 91%
20:00 +13°C° 0 mm 2 mps 750 mmHg 93%
21:00 +12°C° 0 mm 2 mps 750 mmHg 94%
22:00 +12°C° 0 mm 2 mps 750 mmHg 95%
23:00 +12°C° 0 mm 2 mps 750 mmHg 96%

29 October, Thursday

Time Temperature Precipitation Wind Pressure Humidity
00:00 +12°C° 0 mm 2 mps 750 mmHg 96%
01:00 +12°C° 0 mm 2 mps 750 mmHg 96%
02:00 +10°C° 0 mm 3 mps 750 mmHg 97%
03:00 +11°C° 0 mm 3 mps 750 mmHg 96%
04:00 +12°C° 0 mm 2 mps 750 mmHg 96%
05:00 +12°C° 0 mm 2 mps 750 mmHg 95%
06:00 +11°C° 0 mm 3 mps 750 mmHg 95%
07:00 +11°C° 0 mm 3 mps 750 mmHg 94%
08:00 +11°C° 0 mm 3 mps 750 mmHg 94%
09:00 +12°C° 0 mm 3 mps 750 mmHg 90%
10:00 +13°C° 0 mm 4 mps 750 mmHg 86%
11:00 +13°C° 0 mm 4 mps 750 mmHg 83%
12:00 +14°C° 0 mm 4 mps 750 mmHg 81%
13:00 +14°C° 0 mm 4 mps 750 mmHg 79%
14:00 +14°C° 0 mm 3 mps 750 mmHg 77%
15:00 +14°C° 0 mm 3 mps 750 mmHg 80%
16:00 +13°C° 0 mm 3 mps 750 mmHg 83%
17:00 +13°C° 0 mm 2 mps 750 mmHg 86%
18:00 +12°C° 0 mm 3 mps 750 mmHg 83%
19:00 +12°C° 0 mm 3 mps 750 mmHg 80%
20:00 +12°C° 0 mm 3 mps 751 mmHg 77%
21:00 +11°C° 0.1 mm 3 mps 751 mmHg 78%
22:00 +11°C° 0.1 mm 3 mps 751 mmHg 80%
23:00 +11°C° 0.1 mm 3 mps 751 mmHg 81%

30 October, Friday

Time Temperature Precipitation Wind Pressure Humidity
00:00 +10°C° 0.5 mm 2 mps 751 mmHg 85%
01:00 +10°C° 0.5 mm 2 mps 752 mmHg 88%
02:00 +9°C° 0.5 mm 2 mps 752 mmHg 91%
03:00 +9°C° 0 mm 2 mps 752 mmHg 92%
04:00 +8°C° 0 mm 2 mps 752 mmHg 93%
05:00 +8°C° 0 mm 2 mps 752 mmHg 94%
06:00 +7°C° 0 mm 2 mps 752 mmHg 94%
07:00 +7°C° 0 mm 2 mps 752 mmHg 93%
08:00 +7°C° 0 mm 2 mps 752 mmHg 93%
09:00 +8°C° 0 mm 3 mps 752 mmHg 87%
10:00 +8°C° 0 mm 4 mps 752 mmHg 82%
11:00 +11°C° 0 mm 4 mps 752 mmHg 76%
12:00 +11°C° 0 mm 4 mps 752 mmHg 74%
13:00 +11°C° 0 mm 4 mps 752 mmHg 72%
14:00 +12°C° 0 mm 4 mps 752 mmHg 70%
15:00 +11°C° 0 mm 4 mps 752 mmHg 73%
16:00 +11°C° 0 mm 4 mps 752 mmHg 75%
17:00 +11°C° 0 mm 4 mps 752 mmHg 78%
18:00 +10°C° 0 mm 4 mps 752 mmHg 79%
19:00 +10°C° 0 mm 4 mps 752 mmHg 81%
20:00 +10°C° 0 mm 4 mps 752 mmHg 82%
21:00 +10°C° 0 mm 4 mps 752 mmHg 83%
22:00 +10°C° 0 mm 4 mps 752 mmHg 84%
23:00 +10°C° 0 mm 4 mps 752 mmHg 85%
Show more